Showing default

NUSAT-48 (H. LEAVITT), 60498

Orbit data source: Space-Track

NUSAT-48 (H. LEAVITT), 60498 is a payload satellite owned by URUGUS S.A. (AR) in SSO that was launched on Fri, 16 Aug 2024 UTC via an FALCON 9 launch vehicle from the Air Force Western Test Range (AFWTR). Payload-class satellites include a variety of spacecraft equipped with specific instruments for various scientific and technological missions. These include communications satellites like Starlink; space stations such as the ISS; scientific satellites like the Hubble; Earth observation satellites from companies like Planet Labs, Umbra, and HawkEye 360; GPS; miniature CubeSats for education and research; and military/defense satellites.

Loading next visibility...
Identifier
60498, 2024-149AG
Orbit
SSO
Country
Flag of UnknownUnknown / ARGN
Related business
Manufacturer
URUGUS S.A.
Mission
Operational Commercial Imaging
Bus & Motor
NEWSAT V, Unknown motor
Mass
41.5 kg wet, 38.5 kg dry
Launch date (UTC)
2024-08-16 (1 year ago)
Launch vehicle
FALCON 9
Launch site
Air Force Western Test Range (AFWTR)
Object type
Payload
Rocket body
Debris
Shape & HBR
Box, 1.0 m
Radar Cross Section
0.542 m², Medium (>0.1 m² and < 1m²)

Expand to show TLE details & history
Last TLE update: 1 day ago

TLE from 1 day ago
0 NUSAT-48 (H. LEAVITT)
1 60498U 24149AG  26036.81107250  .00017573  00000-0  60137-3 0  9991
2 60498  97.3895 119.0207 0009041  38.5193 321.6692 15.30264543 82050
Epoch: 2026-02-05T19:27Z
TLE epoch observation values (Epoch: 2026-02-05T19:27:56.664Z)
Latitude
0.00001°
Longitude
51.07666°
Altitude
473.268 km
Speed
7.632 km/s
True Right ascension
07h 56m 04s
True Declination
0° 00' 00"
Sunlit
Object was in full shadow at epoch
Visualization orbit readout
Latitude
Unknown
Longitude
Unknown
Altitude
Unknown
Speed
Unknown
Apparent Right ascension
Unknown
Apparent Declination
Unknown
Sunlit
N/A
Visualization observer readout
Local Sidereal Time
06:34:45
Azimuth
Unknown
Elevation
Unknown
Doppler factor
Unknown
Orbital elements
Apogee altitude
478.167 km
Perigee altitude
465.781 km
Semi-major axis
6,850.111 km
Eccentricity
0.0009
Inclination
97.3895°
RAAN
119.0207°
Arg. of periapsis
38.5193°
True anomaly
321.60489°
Mean anomaly
321.6692°
Eccentric anomaly
321.63705°
Mean motion
3.82822 °/min
Orbital period
94.04 mins
BSTAR
0.00060137
Loading maneuver chart data...
Computing Atmospheric mass density...
Loading historical data...
Loading historical data...
Loading historical data...
Loading historical data...
Loading historical data...
Loading historical data...
Loading historical data...

Documentation

Showing up to 5 results
|